Location: Star Dogged Moon Observatory
(29.7756°N, 82.0783°W)
Time: 00:41:02
(UTC-04:00)

Amateur Radio Satellites - All Passes

Search period start: 26 May 2016 00:11
Search period end: 27 May 2016 00:11
Location: Star Dogged Moon Observatory, 29.7756°N, 82.0783°W

Satellite Date Start Highest point End Downlink Frequencies (MHz)
Time Altitude Azimuth
NANOSAT C BR1 26 May 00:14:32 00:17:54 23° 97° (E) 00:21:15 145.865
CUBEBUG 1 26 May 00:18:24 00:22:47 64° 76° (ENE) 00:27:11 437.445
VELOX 1 26 May 00:19:45 00:24:10 65° 76° (ENE) 00:28:35 145.980
DX 1 26 May 00:21:44 00:26:01 57° 75° (ENE) 00:30:20 434.975-435.025
ANTELSAT 26 May 00:24:54 00:28:45 32° 286° (WNW) 00:32:37 437.575/2403.000
SO-50 26 May 00:52:12 00:56:48 43° 113° (ESE) 01:01:27 436.795
DUCHIFAT 1 26 May 00:53:27 00:57:37 73° 101° (E) 01:01:46 145.980
SPROUT 26 May 00:55:03 00:59:17 61° 76° (ENE) 01:03:32 437.525
AISAT 26 May 00:55:48 01:00:01 41° 261° (W) 01:04:15 437.250
Cosmos 2499 26 May 01:03:56 01:08:53 20° 288° (WNW) 01:14:02 435.465 / 435.565
50 SAT 26 May 01:08:05 01:10:47 20° 263° (W) 01:13:31 437.505
DANDE 26 May 01:10:05 01:18:17 60° 268° (W) 01:25:29 436.750
UKube-1 26 May 01:15:12 01:19:12 37° 261° (W) 01:23:14 .
BUGSAT 1 26 May 01:20:23 01:24:23 67° 100° (E) 01:28:22 437.445
AIST 2 26 May 01:23:14 01:26:37 25° 249° (WSW) 01:30:00 435.215
TISAT 1 26 May 01:27:12 01:31:04 35° 74° (ENE) 01:34:56 437.305
ESTCUBE 1 26 May 01:28:09 01:30:08 13° 266° (W) 01:32:08 437.505/2401.250
POPSAT HIP 1 26 May 01:29:32 01:33:19 33° 286° (WNW) 01:37:05 437.405
QB50P1 26 May 01:30:11 01:33:55 32° 287° (WNW) 01:37:38 145.935-145.965
QB50P2 26 May 01:31:50 01:35:28 29° 287° (WNW) 01:39:06 145.880/145.840
POLYITAN 1 26 May 01:34:18 01:37:54 28° 287° (WNW) 01:41:30 437.675
CUSAT 1 26 May 01:38:35 01:42:25 15° 279° (W) 01:45:56 437.405
PHONESAT 2.4 26 May 01:38:59 01:40:21 12° 355° (N) 01:41:42 2401.200-2431.200
Oscar 19 26 May 01:39:52 01:42:00 12° 93° (E) 01:44:08 437.125/150
JAS-2 26 May 01:40:07 01:46:49 39° 96° (E) 01:52:48 435.910
RS-15 26 May 01:48:20 01:56:52 21° 40° (NE) 02:05:22 29.354- 29.394
NANOSAT C BR1 26 May 01:50:25 01:53:26 20° 289° (WNW) 01:56:28 145.865
SO-50 26 May 02:34:05 02:37:27 18° 307° (NW) 02:40:49 436.795
SWISSCUBE 26 May 02:47:19 02:51:57 58° 75° (ENE) 02:56:37 437.505
ITUPSAT 1 26 May 02:52:22 02:57:01 58° 75° (ENE) 03:01:42 437.325
TISAT 1 26 May 03:04:44 03:06:45 13° 265° (W) 03:08:47 437.305
PHONESAT 2.4 26 May 03:16:04 03:17:57 15° 12° (NNE) 03:19:49 2401.200-2431.200
Oscar 19 26 May 03:16:32 03:21:33 54° 286° (WNW) 03:26:32 437.125/150
BEESAT 26 May 03:17:11 03:21:54 71° 258° (WSW) 03:26:38 436.000
Gurwin Techsat 1B 26 May 03:23:19 03:28:37 66° 102° (ESE) 03:33:53 435.225
JAS-2 26 May 03:25:18 03:31:32 31° 293° (WNW) 03:37:14 435.910
STARS 26 May 03:51:18 03:53:06 12° 68° (ENE) 03:54:55 437.465
ITAMSAT 1 26 May 03:53:45 03:58:46 47° 100° (E) 04:03:46 435.822/435.867
RS-15 26 May 03:59:12 04:11:37 78° 63° (ENE) 04:23:49 29.354- 29.394
YUBILEINY 26 May 04:07:42 04:16:10 52° 80° (E) 04:24:38 435.215
Cosmos 2504 26 May 04:27:53 04:33:03 17° 72° (ENE) 04:38:18 435.465 / 435.565
KKS-1 26 May 04:43:44 04:48:10 68° 258° (WSW) 04:52:38 437.445
MOZHAYETS 4 26 May 04:45:19 04:49:51 84° 77° (ENE) 04:54:25
AO-7 26 May 04:47:30 04:55:37 52° 103° (ESE) 05:03:42 29.400- 29.500
PHONESAT 2.4 26 May 04:52:05 04:55:08 52° 27° (NNE) 04:58:11 2401.200-2431.200
Cosmos 2491 26 May 04:53:36 05:02:20 68° 92° (E) 05:11:04 435.465 / 435.565
Gurwin Techsat 1B 26 May 05:06:02 05:07:56 12° 295° (WNW) 05:09:49 435.225
STARS 26 May 05:24:49 05:29:01 44° 260° (W) 05:33:14 437.465
ITAMSAT 1 26 May 05:34:40 05:37:47 16° 293° (WNW) 05:40:55 435.822/435.867
CUBESAT XI-V 26 May 06:05:30 06:10:05 64° 76° (ENE) 06:14:43 437.345
YUBILEINY 26 May 06:05:31 06:12:23 27° 275° (W) 06:19:18 435.215
HORYU 2 26 May 06:07:22 06:11:48 74° 103° (ESE) 06:16:13 437.375
NOAA 15 26 May 06:12:33 06:14:30 12° 93° (E) 06:16:25 137.62
RS-15 26 May 06:14:01 06:22:47 24° 259° (WSW) 06:31:31 29.354- 29.394
AO-85 26 May 06:17:30 06:22:30 39° 111° (ESE) 06:27:32 145.980
Cosmos 2504 26 May 06:18:30 06:27:02 79° 266° (W) 06:35:54 435.465 / 435.565
ISS 26 May 06:28:09 06:31:25 85° 227° (SW) 06:34:40 145.825
PHONESAT 2.4 26 May 06:29:40 06:31:40 16° 219° (SW) 06:33:39 2401.200-2431.200
AO-7 26 May 06:41:04 06:47:53 29° 297° (WNW) 06:54:44 29.400- 29.500
STRAND 1 26 May 06:43:44 06:45:15 11° 65° (ENE) 06:46:45 437.568
Cosmos 2491 26 May 06:53:40 06:59:43 20° 288° (WNW) 07:05:48 435.465 / 435.565
CUTE-I 26 May 06:55:25 06:59:43 24° 97° (E) 07:04:01 437.470
JUGNU 26 May 06:55:25 06:59:53 22° 167° (SSE) 07:04:21 437.505
BRITE-PL 26 May 07:17:57 07:22:49 49° 99° (E) 07:27:17 437.365/2234.400
NOAA 18 26 May 07:31:33 07:37:02 72° 103° (ESE) 07:42:30 137.9125
Cubesat XI-IV 26 May 07:47:35 07:52:58 86° 103° (ESE) 07:58:20 437.490
NOAA 15 26 May 07:49:20 07:54:32 59° 285° (WNW) 07:59:42 137.62
GOMX 1 26 May 07:51:44 07:56:12 48° 99° (E) 08:00:21 467.674
AO-85 26 May 07:58:43 08:03:05 24° 305° (NW) 08:07:26 145.980
HO-68 26 May 08:04:39 08:07:28 12° 93° (E) 08:10:16 435.675
LilacSat-2 26 May 08:11:02 08:14:30 35° 285° (WNW) 08:17:57 437.200
Cosmos 2504 26 May 08:17:28 08:19:09 11° 280° (W) 08:20:52 435.465 / 435.565
STRAND 1 26 May 08:18:47 08:23:48 64° 258° (WSW) 08:28:52 437.568
CANX-2 26 May 08:24:34 08:26:32 13° 94° (E) 08:28:31 2200.000
PRISM 26 May 08:31:11 08:34:32 24° 72° (ENE) 08:37:54 437.425
CUTE-I 26 May 08:35:01 08:39:41 31° 289° (WNW) 08:44:21 437.470
JUGNU 26 May 08:43:14 08:48:26 31° 176° (S) 08:53:39 437.505
SRMSAT 26 May 08:45:52 08:49:58 19° 165° (SSE) 08:54:03 437.500
DOVE 4 26 May 08:49:10 08:53:30 77° 281° (WNW) 08:57:39 437.250
CUTE 1.7 + AOD 2 26 May 08:50:47 08:54:17 24° 97° (E) 08:57:46 437.475
BRITE-PL 26 May 08:58:21 09:00:41 13° 294° (WNW) 09:02:57 437.365/2234.400
Cosmos 2499 26 May 09:08:15 09:12:41 15° 70° (ENE) 09:17:09 435.465 / 435.565
AUBIESAT-1 26 May 09:08:41 09:11:47 37° 104° (ESE) 09:14:54 437.475
M-CUBED/EXP-1 PRIME 26 May 09:13:46 09:16:59 61° 106° (ESE) 09:20:13 437.505
NOAA 18 26 May 09:15:19 09:17:00 11° 296° (WNW) 09:18:41 137.9125
AIST 1 26 May 09:16:17 09:20:30 49° 82° (E) 09:24:40
COMPASS 1 26 May 09:18:37 09:22:09 25° 97° (E) 09:25:39 437.405
AAUSAT CUBESAT 2 26 May 09:23:00 09:26:19 22° 96° (E) 09:29:37 437.432
UWE-3 26 May 09:30:01 09:32:01 13° 95° (E) 09:34:01 435.000/436.395/437.385
CINEMA 3 26 May 09:31:55 09:36:05 89° 110° (ESE) 09:40:14 145.822/145.860
GOMX 1 26 May 09:32:22 09:33:41 11° 294° (WNW) 09:34:59 467.674
O/OREOS (USA 219) 26 May 09:46:02 09:50:02 31° 103° (ESE) 09:54:02 437.305
HO-68 26 May 09:48:31 09:55:43 83° 285° (WNW) 10:02:54 435.675
GONETS M04 26 May 09:57:31 10:06:06 61° 82° (E) 10:14:38
CANX-2 26 May 09:58:31 10:02:27 37° 286° (WNW) 10:06:24 2200.000
SEEDS 26 May 10:04:22 10:08:31 52° 284° (WNW) 10:12:38 437.485
PRISM 26 May 10:06:50 10:09:45 19° 264° (W) 10:12:41 437.425
DELFI C3 26 May 10:08:23 10:09:45 11° 94° (E) 10:11:09 145.870
PCSat 26 May 10:16:19 10:21:37 60° 111° (ESE) 10:26:57 145.827
Oscar 11 26 May 10:23:11 10:27:23 47° 100° (E) 10:31:34 145.826/435.025
CUTE 1.7 + AOD 2 26 May 10:26:47 10:29:55 20° 289° (WNW) 10:33:03 437.475
JUGNU 26 May 10:31:56 10:37:02 29° 186° (S) 10:42:07 437.505
CUBEBUG 2 26 May 10:32:27 10:36:32 59° 284° (WNW) 10:40:42 437.445
SRMSAT 26 May 10:33:33 10:38:39 30° 174° (S) 10:43:44 437.500
ZACube-1 26 May 10:34:04 10:38:13 57° 100° (E) 10:42:25 437.345
UNISAT 6 26 May 10:36:25 10:40:18 31° 73° (ENE) 10:44:06 437.425
TIGRISAT 26 May 10:44:21 10:48:23 36° 74° (ENE) 10:52:21 435.000
COMPASS 1 26 May 10:54:33 10:57:29 19° 289° (WNW) 11:00:24 437.405
HUMSAT D 26 May 10:57:04 11:00:16 21° 97° (E) 11:03:29 437.325/437.525
Cosmos 2499 26 May 10:57:54 11:06:38 89° 268° (W) 11:15:32 435.465 / 435.565
AAUSAT CUBESAT 2 26 May 10:58:29 11:01:37 21° 289° (WNW) 11:04:46 437.432
UWE-3 26 May 11:04:43 11:08:30 34° 286° (WNW) 11:12:22 435.000/436.395/437.385
SO-50 26 May 11:09:38 11:14:17 89° 243° (WSW) 11:18:45 436.795
FUNcube-1 26 May 11:13:10 11:17:11 46° 285° (WNW) 11:21:16 145.935
ANTELSAT 26 May 11:17:04 11:21:29 81° 255° (WSW) 11:25:51 437.575/2403.000
O/OREOS (USA 219) 26 May 11:26:15 11:29:25 18° 296° (WNW) 11:32:35 437.305
DUCHIFAT 1 26 May 11:39:55 11:43:18 24° 72° (ENE) 11:46:41 145.980
HO-68 26 May 11:40:05 11:42:20 12° 301° (WNW) 11:44:35 435.675
BEESAT 2 26 May 11:40:40 11:42:58 15° 109° (ESE) 11:45:17 435.950
DELFI C3 26 May 11:41:00 11:44:41 36° 286° (WNW) 11:48:23 145.870
ESTCUBE 1 26 May 11:48:54 11:51:24 15° 95° (E) 11:53:53 437.505/2401.250
GONETS M04 26 May 11:56:02 12:02:08 22° 277° (W) 12:08:15
Oscar 11 26 May 12:01:51 12:03:02 11° 292° (WNW) 12:04:13 145.826/435.025
PCSat 26 May 12:02:17 12:05:22 15° 306° (NW) 12:08:27 145.827
BUGSAT 1 26 May 12:04:45 12:07:56 21° 71° (ENE) 12:11:07 437.445
CUBEBUG 1 26 May 12:14:04 12:17:09 19° 96° (E) 12:20:13 437.445
UNISAT 6 26 May 12:14:11 12:16:59 16° 264° (W) 12:19:44 437.425
POPSAT HIP 1 26 May 12:15:18 12:19:33 78° 76° (ENE) 12:23:47 437.405
QB50P1 26 May 12:15:51 12:20:06 80° 75° (ENE) 12:24:20 145.935-145.965
BEESAT 3 26 May 12:16:38 12:20:33 89° 296° (WNW) 12:24:30 437.485
VELOX 1 26 May 12:16:50 12:20:03 20° 96° (E) 12:23:15 145.980
DX 1 26 May 12:17:13 12:19:54 16° 95° (E) 12:22:34 434.975-435.025
QB50P2 26 May 12:17:36 12:21:51 90° 77° (ENE) 12:26:06 145.880/145.840
POLYITAN 1 26 May 12:20:03 12:24:18 88° 258° (WSW) 12:28:33 437.675
JUGNU 26 May 12:21:34 12:25:33 18° 196° (SSW) 12:29:30 437.505
SRMSAT 26 May 12:22:15 12:27:23 30° 184° (S) 12:32:30 437.500
TIGRISAT 26 May 12:22:49 12:25:07 14° 265° (W) 12:27:22 435.000
DANDE 26 May 12:30:10 12:34:00 23° 84° (E) 12:38:43 436.750
HUMSAT D 26 May 12:32:33 12:35:45 22° 288° (WNW) 12:38:58 437.325/437.525
NANOSAT C BR1 26 May 12:35:15 12:39:26 59° 260° (W) 12:43:36 145.865
50 SAT 26 May 12:42:15 12:45:52 49° 100° (E) 12:49:29 437.505
CUSAT 1 26 May 12:47:44 12:53:20 87° 277° (W) 13:00:35 437.405
SPROUT 26 May 12:48:14 12:50:58 17° 95° (E) 12:53:41 437.525
AISAT 26 May 12:51:45 12:56:07 58° 101° (E) 13:00:25 437.250
Oscar 19 26 May 12:52:24 12:53:30 11° 65° (ENE) 12:54:37 437.125/150
Cosmos 2499 26 May 12:54:48 12:58:35 14° 279° (W) 13:02:24 435.465 / 435.565
UKube-1 26 May 13:07:55 13:12:10 56° 101° (E) 13:16:22 .
DUCHIFAT 1 26 May 13:15:47 13:18:53 20° 264° (W) 13:22:00 145.980
BEESAT 2 26 May 13:17:01 13:20:31 30° 302° (WNW) 13:24:02 435.950
ESTCUBE 1 26 May 13:24:04 13:28:16 37° 287° (WNW) 13:32:26 437.505/2401.250
JAS-2 26 May 13:27:38 13:34:35 67° 74° (ENE) 13:42:14 435.910
AIST 2 26 May 13:37:23 13:40:09 18° 109° (ESE) 13:42:56 435.215
BUGSAT 1 26 May 13:39:48 13:43:08 22° 263° (W) 13:46:28 437.445
CUBEBUG 1 26 May 13:49:43 13:53:22 27° 288° (WNW) 13:56:59 437.445
DX 1 26 May 13:52:15 13:56:05 31° 288° (WNW) 13:59:54 434.975-435.025
VELOX 1 26 May 13:52:46 13:56:26 26° 288° (WNW) 14:00:05 145.980
SRMSAT 26 May 14:11:45 14:16:04 21° 194° (SSW) 14:20:20 437.500
DANDE 26 May 14:12:07 14:16:27 31° 288° (WNW) 14:22:01 436.750
SPROUT 26 May 14:23:14 14:26:53 28° 287° (WNW) 14:30:31 437.525
Oscar 19 26 May 14:26:59 14:32:08 70° 258° (WSW) 14:37:21 437.125/150
CUSAT 1 26 May 14:35:35 14:36:50 11° 297° (WNW) 14:38:08 437.405
Gurwin Techsat 1B 26 May 14:38:21 14:43:32 57° 74° (ENE) 14:48:43 435.225
TISAT 1 26 May 14:52:14 14:56:18 51° 285° (WNW) 15:00:19 437.305
SWISSCUBE 26 May 14:54:05 14:57:58 24° 97° (E) 15:01:51 437.505
ITUPSAT 1 26 May 14:59:26 15:03:21 25° 97° (E) 15:07:15 437.325
ITAMSAT 1 26 May 15:05:55 15:10:40 39° 72° (ENE) 15:15:26 435.822/435.867
Cosmos 2491 26 May 15:12:52 15:19:38 24° 74° (ENE) 15:26:21 435.465 / 435.565
AIST 2 26 May 15:14:50 15:18:23 28° 302° (WNW) 15:21:58 435.215
JAS-2 26 May 15:15:28 15:20:06 18° 269° (W) 15:25:00 435.910
BEESAT 26 May 15:23:20 15:27:58 48° 100° (E) 15:32:34 436.000
AO-7 26 May 15:40:02 15:47:39 42° 66° (ENE) 15:55:16 29.400- 29.500
RS-15 26 May 16:08:28 16:14:25 16° 99° (E) 16:20:29 29.354- 29.394
Gurwin Techsat 1B 26 May 16:21:31 16:23:43 13° 267° (W) 16:25:55 435.225
SWISSCUBE 26 May 16:31:42 16:35:37 25° 289° (WNW) 16:39:31 437.505
AO-85 26 May 16:35:54 16:40:23 72° 61° (ENE) 16:44:27 145.980
ITUPSAT 1 26 May 16:37:07 16:41:02 25° 289° (WNW) 16:44:57 437.325
KKS-1 26 May 16:40:53 16:44:57 36° 99° (E) 16:49:00 437.445
MOZHAYETS 4 26 May 16:46:36 16:50:44 31° 98° (E) 16:54:51
ITAMSAT 1 26 May 16:46:41 16:50:10 18° 264° (W) 16:53:41 435.822/435.867
HORYU 2 26 May 16:59:44 17:03:37 31° 73° (ENE) 17:07:30 437.375
YUBILEINY 26 May 17:00:35 17:09:12 72° 93° (E) 17:17:50 435.215
Cosmos 2504 26 May 17:02:35 17:04:59 12° 81° (E) 17:07:24 435.465 / 435.565
BEESAT 26 May 17:03:00 17:05:16 13° 293° (WNW) 17:07:34 436.000
Cosmos 2491 26 May 17:08:19 17:16:47 56° 269° (W) 17:25:11 435.465 / 435.565
STARS 26 May 17:20:00 17:24:15 51° 100° (E) 17:28:28 437.465
NOAA 15 26 May 17:27:37 17:29:16 11° 65° (ENE) 17:30:56 137.62
AO-7 26 May 17:33:01 17:40:19 35° 260° (W) 17:47:42 29.400- 29.500
CUBESAT XI-V 26 May 18:08:38 18:12:34 26° 97° (E) 18:16:27 437.345
CUTE-I 26 May 18:11:45 18:15:48 23° 69° (ENE) 18:19:51 437.470
RS-15 26 May 18:13:52 18:25:02 89° 114° (ESE) 18:36:54 29.354- 29.394
KKS-1 26 May 18:18:42 18:21:10 15° 292° (WNW) 18:23:38 437.445
BRITE-PL 26 May 18:21:30 18:26:26 34° 72° (ENE) 18:31:29 437.365/2234.400
MOZHAYETS 4 26 May 18:24:26 18:27:37 19° 290° (WNW) 18:30:47
HORYU 2 26 May 18:37:20 18:40:10 17° 264° (W) 18:43:00 437.375
LilacSat-2 26 May 18:46:46 18:50:22 41° 75° (ENE) 18:53:57 437.200
Cosmos 2504 26 May 18:50:05 18:57:14 79° 277° (W) 19:04:41 435.465 / 435.565
NOAA 18 26 May 18:51:51 18:57:18 77° 75° (ENE) 19:02:45 137.9125
GOMX 1 26 May 18:52:43 18:57:31 32° 72° (ENE) 19:02:18 467.674
STARS 26 May 18:59:35 19:00:05 10° 293° (WNW) 19:00:36 437.465
YUBILEINY 26 May 19:01:02 19:06:37 18° 288° (WNW) 19:12:14 435.215
NOAA 15 26 May 19:03:08 19:08:23 69° 258° (WSW) 19:13:42 137.62
Cubesat XI-IV 26 May 19:03:31 19:08:48 78° 76° (ENE) 19:14:07 437.490
PCSat 26 May 19:12:01 19:14:55 14° 54° (NE) 19:17:50 145.827
CUBESAT XI-V 26 May 19:46:05 19:49:45 23° 289° (WNW) 19:53:24 437.345
DOVE 4 26 May 19:47:15 19:52:24 55° 76° (ENE) 19:57:25 437.250
AUBIESAT-1 26 May 19:49:24 19:52:39 22° 68° (ENE) 19:55:44 437.475
CUTE-I 26 May 19:50:50 19:55:35 34° 262° (W) 20:00:22 437.470
M-CUBED/EXP-1 PRIME 26 May 19:54:23 19:58:14 32° 70° (ENE) 20:01:52 437.505
BRITE-PL 26 May 20:00:15 20:04:47 26° 265° (W) 20:09:28 437.365/2234.400
O/OREOS (USA 219) 26 May 20:02:14 20:05:44 22° 65° (ENE) 20:09:13 437.305
HO-68 26 May 20:10:38 20:17:10 40° 69° (ENE) 20:23:42 435.675
CINEMA 3 26 May 20:27:03 20:31:34 40° 74° (ENE) 20:35:55 145.822/145.860
RS-15 26 May 20:30:32 20:39:08 24° 318° (NW) 20:48:07 29.354- 29.394
GOMX 1 26 May 20:30:58 20:35:28 26° 264° (W) 20:39:58 467.674
STRAND 1 26 May 20:35:15 20:40:24 73° 102° (ESE) 20:45:32 437.568
CANX-2 26 May 20:44:43 20:48:52 68° 77° (ENE) 20:53:03 2200.000
SEEDS 26 May 20:49:54 20:53:52 45° 75° (ENE) 20:57:51 437.485
PCSat 26 May 20:53:21 20:58:42 63° 249° (WSW) 21:04:01 145.827
GONETS M04 26 May 21:01:32 21:03:44 11° 79° (E) 21:05:56
CUTE 1.7 + AOD 2 26 May 21:12:13 21:16:21 60° 259° (W) 21:20:31 437.475
Oscar 11 26 May 21:13:07 21:15:57 17° 70° (ENE) 21:18:47 145.826/435.025
PHONESAT 2.4 26 May 21:22:01 21:24:14 18° 141° (SE) 21:26:27 2401.200-2431.200
AUBIESAT-1 26 May 21:23:34 21:26:58 23° 257° (WSW) 21:30:13 437.475
CUBEBUG 2 26 May 21:24:14 21:28:34 52° 76° (ENE) 21:32:46 437.445
ZACube-1 26 May 21:24:48 21:28:00 21° 72° (ENE) 21:31:10 437.345
ISS 26 May 21:26:58 21:30:07 49° 131° (SE) 21:33:17 145.825
DOVE 4 26 May 21:27:42 21:30:13 13° 266° (W) 21:32:42 437.250
M-CUBED/EXP-1 PRIME 26 May 21:30:00 21:32:42 16° 259° (WSW) 21:35:19 437.505
COMPASS 1 26 May 21:37:57 21:42:00 59° 259° (W) 21:46:06 437.405
AIST 1 26 May 21:39:06 21:43:10 39° 92° (E) 21:47:16
BEESAT 2 26 May 21:40:40 21:43:51 23° 57° (ENE) 21:47:01 435.950
O/OREOS (USA 219) 26 May 21:41:27 21:45:00 23° 258° (WSW) 21:48:31 437.305
AAUSAT CUBESAT 2 26 May 21:41:32 21:45:36 69° 259° (WSW) 21:49:44 437.432
PRISM 26 May 21:52:55 21:57:06 86° 277° (W) 22:01:14 437.425
UWE-3 26 May 21:55:03 21:59:25 84° 81° (E) 22:03:42 435.000/436.395/437.385
HO-68 26 May 21:58:45 22:04:49 30° 262° (W) 22:10:56 435.675
FUNcube-1 26 May 22:02:22 22:06:34 59° 76° (ENE) 22:10:42 145.935
CINEMA 3 26 May 22:05:58 22:08:43 15° 265° (W) 22:11:25 145.822/145.860
BEESAT 3 26 May 22:16:58 22:20:52 63° 246° (WSW) 22:24:44 437.485
STRAND 1 26 May 22:18:32 22:18:54 10° 295° (WNW) 22:19:16 437.568
DELFI C3 26 May 22:20:33 22:24:21 51° 76° (ENE) 22:28:13 145.870
TIGRISAT 26 May 22:43:41 22:45:11 12° 94° (E) 22:46:42 435.000
Oscar 11 26 May 22:48:07 22:51:49 28° 263° (W) 22:55:32 145.826/435.025
GONETS M04 26 May 22:50:20 22:59:10 84° 94° (E) 23:07:58
PHONESAT 2.4 26 May 22:57:44 23:00:47 48° 334° (NNW) 23:03:50 2401.200-2431.200
ZACube-1 26 May 23:00:44 23:04:08 23° 263° (W) 23:07:29 437.345
ISS 26 May 23:05:16 23:06:46 13° 325° (NW) 23:08:15 145.825
ANTELSAT 26 May 23:14:52 23:18:44 32° 98° (E) 23:22:39 437.575/2403.000
DANDE 26 May 23:14:58 23:21:06 22° 70° (ENE) 23:26:43 436.750
HUMSAT D 26 May 23:16:49 23:20:53 70° 258° (WSW) 23:24:57 437.325/437.525
BEESAT 2 26 May 23:18:33 23:21:31 20° 250° (WSW) 23:24:28 435.950
AIST 1 26 May 23:19:09 23:20:53 12° 285° (WNW) 23:22:38
Cosmos 2499 26 May 23:27:32 23:34:39 87° 93° (E) 23:42:14 435.465 / 435.565
CUSAT 1 26 May 23:30:01 23:37:20 52° 78° (ENE) 23:43:16 437.405
AIST 2 26 May 23:41:26 23:45:03 28° 58° (ENE) 23:48:39 435.215
AISAT 26 May 23:43:37 23:47:15 25° 71° (ENE) 23:50:53 437.250
UKube-1 26 May 23:57:12 00:00:31 22° 71° (ENE) 00:03:50 .
